FENGYUN 1C DEB, 38500

Orbit data source: Space-Track

FENGYUN 1C DEB, 38500 is space debris in SSO originally from a launch on Mon, 10 May 1999 UTC launched from the Taiyaun Space Center, China (TSC). Fengyun 1C debris stems from the Chinese weather satellite Fengyun-1C, which was intentionally destroyed by a Chinese anti-satellite missile in 2007. This event dramatically increased the amount of space debris, with thousands of trackable fragments posing hazards to satellites and human spaceflight. The Fengyun 1C debris cloud has become a focal point in discussions about space sustainability and the need for international regulations to prevent the creation of new debris.

Loading next visibility...
Identifier
38500, 1999-025ESK
Orbit
SSO
Country
Flag of CNCN / PRC
Related business
Manufacturer
Unknown
Mission
Spacecraft
Bus & Motor
Unknown
Mass
Unknown
Launch date (UTC)
1999-05-10 (27 years ago)
Launch vehicle
Unknown
Launch site
Taiyaun Space Center, China (TSC)
Object type
Payload
Rocket body
Debris
Shape & HBR
Unknown shape, 0.1 m
Radar Cross Section
Small (<0.1 m²)

Expand to show TLE details & history
Last TLE update: 2 weeks ago

TLE from 2 weeks ago
0 FENGYUN 1C DEB
1 38500U 99025ESK 26150.43575685  .00004069  00000-0  31487-2 0  9992
2 38500  98.6457 229.6622 0205536 133.0090 228.8495 13.83785608255473
Epoch: 2026-05-30T10:27Z
TLE epoch observation values (Epoch: 2026-05-30T10:27:29.391Z)
Latitude
-0.00003°
Longitude
-175.16208°
Altitude
1,054.22 km
Speed
7.274 km/s
True Right ascension
15h 18m 38s
True Declination
0° 00' 00"
Sunlit
Object was in full shadow at epoch
Visualization orbit readout
Latitude
Unknown
Longitude
Unknown
Altitude
Unknown
Speed
Unknown
Apparent Right ascension
Unknown
Apparent Declination
Unknown
Sunlit
N/A
Visualization observer readout
Local Sidereal Time
13:00:49
Azimuth
Unknown
Elevation
Unknown
Doppler factor
Unknown
Orbital elements
Apogee altitude
1,098.265 km
Perigee altitude
797.121 km
Semi-major axis
7,325.83 km
Eccentricity
0.02055
Inclination
98.6457°
RAAN
229.6622°
Arg. of periapsis
133.009°
True anomaly
227.10579°
Mean anomaly
228.8495°
Eccentric anomaly
227.9747°
Mean motion
3.46145 °/min
Orbital period
104 mins
BSTAR
0.0031487
Loading maneuver chart data...
Computing Atmospheric mass density...
Loading historical data...
Loading historical data...
Loading historical data...
Loading historical data...
Loading historical data...
Loading historical data...
Loading historical data...

Documentation

Showing up to 5 results
|